When you browse on this site, cookies collect data to enhance your experience and personalize the content and advertising you see.
Visit our Privacy Policy to learn more. By continuing to use the site, you agree to this use of cookies and data.
  • In Hungary
  • List of Countries
  • For 7 days
  • Water Temperature
  • Satellite Maps
  • Weather Map
  • News
  • Weather Widgets
  • user-avatar
    Login

    Hourly Weather Strzelniki

    Today, 12 December, Wednesday

    Time Temperature Precipitation Wind Pressure Humidity
    00:00 0°C° 0.1 mm 3 mps 747 mmHg 94%
    01:00 0°C° 0 mm 3 mps 747 mmHg 90%
    02:00 0°C° 0.2 mm 3 mps 747 mmHg 91%
    03:00 0°C° 0.2 mm 3 mps 748 mmHg 91%
    04:00 0°C° 0.2 mm 3 mps 748 mmHg 92%
    05:00 0°C° 0.1 mm 3 mps 748 mmHg 92%
    06:00 +1°C° 0.1 mm 2 mps 749 mmHg 92%
    07:00 +1°C° 0 mm 2 mps 749 mmHg 92%
    08:00 +1°C° 0.1 mm 2 mps 749 mmHg 89%
    09:00 +1°C° 0.1 mm 2 mps 750 mmHg 87%
    10:00 0°C° 0.1 mm 3 mps 750 mmHg 84%
    11:00 +1°C° 0.1 mm 3 mps 751 mmHg 81%
    12:00 +1°C° 0.1 mm 3 mps 751 mmHg 77%
    13:00 +2°C° 0.1 mm 3 mps 751 mmHg 73%
    14:00 +1°C° 0.1 mm 3 mps 751 mmHg 77%
    15:00 0°C° 0.1 mm 3 mps 752 mmHg 80%
    16:00 +1°C° 0.1 mm 2 mps 752 mmHg 83%
    17:00 -1°C° 0 mm 2 mps 752 mmHg 85%
    18:00 -1°C° 0 mm 2 mps 752 mmHg 87%
    19:00 -2°C° 0 mm 2 mps 752 mmHg 89%
    20:00 -2°C° 0 mm 2 mps 753 mmHg 90%
    21:00 -2°C° 0 mm 2 mps 753 mmHg 91%
    22:00 0°C° 0 mm 1 mps 753 mmHg 92%
    23:00 0°C° 0 mm 1 mps 753 mmHg 92%

    Tomorrow, 13 December, Thursday

    Time Temperature Precipitation Wind Pressure Humidity
    00:00 0°C° 0 mm 1 mps 753 mmHg 93%
    01:00 0°C° 0 mm 1 mps 753 mmHg 93%
    02:00 0°C° 0 mm 1 mps 753 mmHg 93%
    03:00 0°C° 0 mm 1 mps 753 mmHg 93%
    04:00 0°C° 0 mm 1 mps 753 mmHg 92%
    05:00 0°C° 0 mm 1 mps 753 mmHg 93%
    06:00 0°C° 0 mm 1 mps 753 mmHg 93%
    07:00 +1°C° 0 mm 1 mps 752 mmHg 94%
    08:00 +1°C° 0.1 mm 1 mps 753 mmHg 92%
    09:00 +1°C° 0.1 mm 1 mps 753 mmHg 91%
    10:00 +2°C° 0.1 mm 1 mps 753 mmHg 89%
    11:00 +2°C° 0 mm 1 mps 752 mmHg 88%
    12:00 +2°C° 0 mm 1 mps 752 mmHg 86%
    13:00 +2°C° 0 mm 1 mps 752 mmHg 85%
    14:00 +2°C° 0 mm 1 mps 752 mmHg 87%
    15:00 +2°C° 0 mm 1 mps 752 mmHg 89%
    16:00 -1°C° 0 mm 2 mps 752 mmHg 91%
    17:00 -1°C° 0 mm 2 mps 752 mmHg 91%
    18:00 -1°C° 0 mm 2 mps 752 mmHg 92%
    19:00 -1°C° 0 mm 2 mps 752 mmHg 92%
    20:00 -1°C° 0 mm 2 mps 752 mmHg 92%
    21:00 +1°C° 0 mm 1 mps 753 mmHg 91%
    22:00 +1°C° 0 mm 1 mps 753 mmHg 91%
    23:00 0°C° 0 mm 1 mps 753 mmHg 91%

    Day after tomorrow, 14 December, Friday

    Time Temperature Precipitation Wind Pressure Humidity
    00:00 0°C° 0 mm 1 mps 753 mmHg 90%
    01:00 0°C° 0 mm 1 mps 753 mmHg 90%
    02:00 0°C° 0 mm 1 mps 753 mmHg 90%
    03:00 0°C° 0 mm 1 mps 753 mmHg 90%
    04:00 -3°C° 0 mm 2 mps 753 mmHg 90%
    05:00 -3°C° 0 mm 2 mps 753 mmHg 90%
    06:00 -3°C° 0 mm 2 mps 753 mmHg 90%
    07:00 -3°C° 0 mm 2 mps 753 mmHg 90%
    08:00 -2°C° 0 mm 2 mps 754 mmHg 87%
    09:00 -2°C° 0 mm 2 mps 754 mmHg 85%
    10:00 -1°C° 0 mm 2 mps 754 mmHg 82%
    11:00 -1°C° 0 mm 2 mps 754 mmHg 79%
    12:00 -1°C° 0 mm 2 mps 754 mmHg 77%
    13:00 +1°C° 0 mm 2 mps 754 mmHg 74%
    14:00 -1°C° 0 mm 2 mps 754 mmHg 76%
    15:00 -2°C° 0 mm 2 mps 754 mmHg 79%
    16:00 -2°C° 0 mm 2 mps 754 mmHg 82%
    17:00 -3°C° 0 mm 2 mps 754 mmHg 83%
    18:00 -3°C° 0 mm 2 mps 755 mmHg 83%
    19:00 -3°C° 0 mm 2 mps 755 mmHg 84%
    20:00 -3°C° 0 mm 2 mps 755 mmHg 85%
    21:00 -3°C° 0 mm 2 mps 755 mmHg 87%
    22:00 -3°C° 0 mm 2 mps 755 mmHg 88%
    23:00 -3°C° 0 mm 2 mps 755 mmHg 89%

    15 December, Saturday

    Time Temperature Precipitation Wind Pressure Humidity
    00:00 -3°C° 0 mm 2 mps 755 mmHg 90%
    01:00 -3°C° 0 mm 2 mps 755 mmHg 91%
    02:00 -3°C° 0 mm 2 mps 755 mmHg 90%
    03:00 -2°C° 0 mm 2 mps 755 mmHg 90%
    04:00 -2°C° 0 mm 3 mps 755 mmHg 90%
    05:00 -2°C° 0 mm 3 mps 755 mmHg 90%
    06:00 -2°C° 0 mm 3 mps 755 mmHg 90%
    07:00 -2°C° 0 mm 3 mps 755 mmHg 91%
    08:00 -2°C° 0 mm 3 mps 755 mmHg 88%
    09:00 -1°C° 0 mm 3 mps 755 mmHg 86%
    10:00 -2°C° 0 mm 4 mps 755 mmHg 83%
    11:00 -2°C° 0 mm 4 mps 755 mmHg 81%
    12:00 -1°C° 0 mm 4 mps 755 mmHg 79%
    13:00 -1°C° 0 mm 4 mps 755 mmHg 77%
    14:00 -2°C° 0 mm 4 mps 755 mmHg 77%
    15:00 -2°C° 0 mm 4 mps 755 mmHg 78%
    16:00 -2°C° 0 mm 4 mps 755 mmHg 78%
    17:00 -3°C° 0 mm 4 mps 755 mmHg 78%
    18:00 -2°C° 0 mm 3 mps 755 mmHg 78%
    19:00 -2°C° 0 mm 3 mps 755 mmHg 78%
    20:00 -2°C° 0 mm 3 mps 755 mmHg 78%
    21:00 -2°C° 0 mm 3 mps 755 mmHg 78%
    22:00 -2°C° 0 mm 3 mps 755 mmHg 78%
    23:00 -2°C° 0 mm 3 mps 754 mmHg 79%

    16 December, Sunday

    Time Temperature Precipitation Wind Pressure Humidity
    00:00 -2°C° 0 mm 3 mps 754 mmHg 80%
    01:00 -4°C° 0 mm 3 mps 754 mmHg 81%
    02:00 -4°C° 0 mm 3 mps 754 mmHg 83%
    03:00 -3°C° 0 mm 2 mps 753 mmHg 84%
    04:00 -3°C° 0 mm 2 mps 753 mmHg 85%
    05:00 -3°C° 0 mm 2 mps 753 mmHg 86%
    06:00 -3°C° 0 mm 2 mps 753 mmHg 87%
    07:00 -2°C° 0 mm 2 mps 752 mmHg 88%
    08:00 -2°C° 0 mm 2 mps 752 mmHg 87%
    09:00 -2°C° 0 mm 2 mps 752 mmHg 86%
    10:00 -2°C° 0 mm 2 mps 752 mmHg 85%
    11:00 -1°C° 0 mm 2 mps 752 mmHg 83%
    12:00 -1°C° 0 mm 2 mps 751 mmHg 81%
    13:00 +1°C° 0 mm 2 mps 751 mmHg 79%
    14:00 -1°C° 0 mm 2 mps 750 mmHg 82%
    15:00 -1°C° 0 mm 2 mps 750 mmHg 86%
    16:00 -2°C° 0 mm 2 mps 750 mmHg 89%
    17:00 -1°C° 0 mm 3 mps 750 mmHg 87%
    18:00 -1°C° 0 mm 3 mps 749 mmHg 86%
    19:00 -2°C° 0 mm 4 mps 749 mmHg 84%
    20:00 -1°C° 0 mm 4 mps 749 mmHg 85%
    21:00 -1°C° 0 mm 4 mps 749 mmHg 85%
    22:00 -1°C° 0 mm 4 mps 749 mmHg 85%
    23:00 -1°C° 0 mm 4 mps 749 mmHg 85%

    17 December, Monday

    Time Temperature Precipitation Wind Pressure Humidity
    00:00 -1°C° 0 mm 4 mps 748 mmHg 85%
    01:00 0°C° 0 mm 3 mps 748 mmHg 85%
    02:00 0°C° 0 mm 3 mps 748 mmHg 86%
    03:00 0°C° 0 mm 3 mps 748 mmHg 86%
    04:00 +1°C° 0 mm 2 mps 748 mmHg 86%
    05:00 +2°C° 0.6 mm 2 mps 748 mmHg 87%
    06:00 +2°C° 0.6 mm 2 mps 748 mmHg 88%
    07:00 +3°C° 0.6 mm 1 mps 748 mmHg 89%
    08:00 +3°C° 1.4 mm 1 mps 748 mmHg 91%
    09:00 +3°C° 1.4 mm 1 mps 748 mmHg 92%
    10:00 +2°C° 1.4 mm 1 mps 749 mmHg 94%
    11:00 +2°C° 0.9 mm 1 mps 749 mmHg 95%
    12:00 +2°C° 0.9 mm 1 mps 749 mmHg 97%
    13:00 +2°C° 0.9 mm 1 mps 749 mmHg 98%
    14:00 +2°C° 0.2 mm 1 mps 749 mmHg 97%
    15:00 +2°C° 0.2 mm 1 mps 749 mmHg 95%
    16:00 +2°C° 0.2 mm 1 mps 750 mmHg 94%
    17:00 +2°C° 0 mm 1 mps 750 mmHg 94%
    18:00 +1°C° 0 mm 1 mps 750 mmHg 94%
    19:00 -1°C° 0 mm 2 mps 751 mmHg 94%
    20:00 -1°C° 0 mm 2 mps 751 mmHg 94%
    21:00 -1°C° 0 mm 2 mps 752 mmHg 95%
    22:00 -1°C° 0 mm 2 mps 752 mmHg 95%
    23:00 -1°C° 0 mm 2 mps 753 mmHg 95%
    Show more